Lapse_Rate
9.3 9.3 9.2 9.1 9.1 9.2 9.2 9.3 9.3 9.3 9.3 9.3 9.5 8.9 9.0 8.8 8.7 8.8 7.9 6.3 7.5 7.2 8.6 7.8 6.5 6.8 7.6 6.2 6.5 6.6 6.5 6.5 6.5 6.5 6.5 5.7 6.5 5.3 5.2 5.7 4.1 2.8 1.2 1.3 3.2
9.1 8.9 8.7 8.3 8.3 8.3 8.3 8.8 9.2 9.3 9.3 9.3 9.3 9.3 9.3 8.9 8.4 8.4 5.9 7.6 9.2 9.3 7.7 7.3 7.1 6.6 6.6 7.0 6.5 6.4 6.5 6.5 6.5 6.5 6.5 6.3 5.8 5.2 5.7 5.1 5.0 3.2 0.9 1.6 2.5
8.3 6.7 6.0 6.1 6.2 6.3 6.3 6.6 7.8 9.3 9.3 9.3 9.3 9.5 9.0 9.6 7.8 5.5 9.5 9.4 8.7 8.8 8.8 7.2 7.7 7.7 6.7 7.0 6.4 6.4 6.5 6.5 6.4 5.8 5.7 6.1 6.1 5.2 5.9 6.5 3.9 3.5 0.8 2.7 2.6
7.9 6.4 6.0 6.1 6.1 6.3 6.1 6.1 7.6 9.4 9.1 9.4 9.4 9.4 9.2 9.0 6.5 7.6 7.9 8.9 8.5 9.3 8.3 7.6 6.8 6.7 6.5 6.5 6.9 6.5 6.5 6.4 6.3 5.9 5.7 6.5 5.9 6.2 4.8 4.9 2.8 1.5 0.1 2.1 3.6
5.7 5.0 5.0 5.2 5.0 5.1 5.6 5.7 6.5 6.8 7.5 8.4 9.4 9.1 8.4 7.5 7.5 7.9 8.5 7.9 7.9 7.4 7.4 6.7 7.0 6.9 6.5 6.5 6.6 6.5 6.5 6.6 6.4 6.2 5.8 5.7 6.2 6.3 6.1 3.3 3.4 1.3 2.3 2.7 3.8
4.9 5.0 5.2 5.6 5.4 5.2 5.3 6.0 6.7 6.9 7.2 8.1 8.7 9.1 7.7 6.5 7.7 7.7 7.1 7.2 7.3 7.6 6.2 7.7 7.0 7.3 6.7 6.5 6.5 6.5 6.5 6.5 6.5 6.5 6.0 6.4 6.4 6.2 5.4 4.4 2.7 3.3 2.4 3.3 3.8
5.1 5.0 5.4 5.9 6.0 6.3 6.3 6.4 7.2 7.5 7.8 8.6 8.5 8.3 7.9 7.4 7.8 6.9 6.6 6.3 6.9 7.2 6.3 6.5 7.5 7.2 6.8 6.5 7.0 6.7 6.5 6.5 6.5 6.5 6.4 6.1 6.5 6.5 5.5 4.8 3.2 4.4 3.0 2.9 3.4
4.8 4.9 5.3 6.1 6.7 7.0 7.4 6.9 7.0 7.4 7.8 8.9 8.5 7.9 6.8 7.4 7.0 6.8 6.7 7.0 8.0 8.1 7.3 6.6 6.7 7.4 6.9 7.0 6.7 6.5 6.5 6.5 6.5 6.5 6.5 6.1 6.5 6.5 4.9 4.6 4.6 3.8 4.1 3.6 3.6
4.8 4.8 5.0 5.9 6.8 7.5 7.6 6.7 7.3 7.4 7.2 8.4 6.2 6.5 6.1 8.0 7.4 6.9 6.4 7.9 8.4 7.5 7.5 8.6 7.2 6.8 6.9 6.5 6.5 6.5 6.5 6.5 6.5 6.5 6.5 6.5 6.5 6.5 4.5 5.1 4.6 4.1 4.5 3.9 3.9
5.0 4.9 5.2 5.7 6.8 7.9 7.5 6.7 6.9 5.2 6.2 8.2 7.2 6.1 6.6 6.9 6.9 6.9 7.7 7.6 7.7 7.6 7.0 7.3 6.5 6.5 6.5 6.5 6.5 6.5 6.5 6.5 6.5 6.5 6.5 6.5 6.5 6.5 4.8 5.8 4.7 4.1 5.1 5.5 4.5
4.9 5.5 5.2 6.0 6.9 8.0 5.7 3.1 3.3 4.4 3.6 5.8 6.0 5.5 7.2 7.3 7.3 7.1 7.3 6.4 6.8 6.7 6.5 6.7 6.5 6.5 6.5 6.5 6.5 6.5 6.5 6.5 6.5 6.5 6.5 6.5 6.5 6.5 6.4 6.0 5.6 4.4 4.3 5.2 3.7
5.2 5.7 5.9 6.2 7.0 7.6 5.3 5.7 7.2 6.4 5.7 5.9 7.1 6.7 7.3 7.0 6.4 7.2 7.1 6.2 6.2 6.5 6.5 6.5 6.5 6.5 6.5 6.5 6.5 6.5 6.5 6.5 6.5 6.5 6.5 6.5 6.5 6.5 6.5 6.4 5.7 5.3 4.8 4.7 4.5
5.8 5.9 6.2 6.3 7.0 4.4 5.3 6.9 7.0 6.3 6.2 6.5 7.1 6.7 6.9 6.8 6.0 6.8 6.8 6.5 6.5 6.5 6.5 6.5 6.5 6.5 6.5 6.5 6.5 6.5 6.5 6.5 6.5 6.5 6.5 6.5 6.5 6.5 6.5 6.1 4.7 3.7 3.6 4.0 4.3
5.8 5.7 6.8 5.9 4.4 4.2 5.3 5.4 6.4 6.9 6.5 6.5 6.5 6.9 7.4 6.9 6.4 7.4 7.5 6.8 6.5 6.5 6.5 6.5 6.5 6.5 6.5 6.5 6.5 6.5 6.5 6.5 6.5 6.5 6.5 6.5 6.5 6.5 6.5 6.5 6.5 4.9 4.6 4.5 4.5
5.8 6.6 5.9 6.8 4.3 6.0 5.1 4.9 6.1 5.9 6.5 6.5 6.5 7.6 7.5 6.6 6.5 6.8 7.4 6.1 6.5 6.5 6.5 6.5 6.5 6.5 6.5 6.5 6.5 6.5 6.5 6.5 6.5 6.5 6.5 6.5 6.5 6.5 6.5 6.5 6.5 6.5 3.6 4.3 4.0
5.9 6.8 6.1 4.4 3.2 5.8 4.0 4.1 4.3 6.5 6.5 6.5 6.5 6.5 6.5 6.4 6.5 6.8 6.7 7.0 6.5 6.5 6.5 6.5 6.7 6.5 6.5 6.5 6.5 6.5 6.5 6.5 6.5 6.5 6.5 6.5 6.5 6.5 6.5 6.5 6.5 6.5 5.9 5.1 5.7
5.8 6.6 5.7 5.0 4.8 5.0 4.3 3.7 6.5 6.5 6.5 6.5 6.5 6.5 6.5 6.5 6.5 6.5 6.5 6.5 6.5 6.5 6.5 6.5 6.5 6.5 6.5 6.5 6.5 6.5 6.5 6.5 6.5 6.5 6.5 6.5 6.5 6.5 6.5 6.5 6.5 6.5 5.8 5.1 3.7
5.7 5.3 5.9 6.2 5.0 4.3 2.9 6.1 6.5 6.5 6.5 6.5 6.5 6.5 6.5 6.5 6.5 6.5 6.5 6.5 6.5 6.5 6.5 6.5 6.5 6.5 6.5 6.5 6.5 6.5 6.5 6.5 6.5 6.5 6.5 6.5 6.5 6.5 6.5 6.5 6.5 6.1 6.0 4.8 3.5
4.4 2.2 5.5 5.5 5.1 3.6 3.8 6.5 6.5 6.5 6.5 6.5 6.5 6.5 6.5 6.5 6.5 6.5 6.5 6.5 6.5 6.5 6.5 6.5 6.5 6.5 6.5 6.5 6.5 6.5 6.5 6.5 6.5 6.5 6.5 6.5 6.5 6.5 6.5 6.5 6.5 6.7 6.5 6.0 4.9
1.4 2.1 6.2 5.4 6.1 2.9 5.9 6.5 6.5 6.4 6.5 6.5 6.5 6.5 6.5 6.5 6.5 6.5 6.5 6.5 6.5 6.5 6.5 6.5 6.5 6.5 6.5 6.5 6.5 6.5 6.5 6.5 6.5 6.5 6.5 6.5 6.5 6.5 6.5 6.5 6.5 6.5 6.5 5.9 4.7
0.2 2.7 5.3 4.4 3.5 5.4 6.5 6.5 6.5 6.5 6.4 6.5 6.5 6.5 6.5 6.5 6.5 6.5 6.5 6.5 6.5 6.5 6.5 6.5 6.5 6.5 6.5 6.5 6.5 6.5 6.5 6.5 6.5 6.5 6.5 6.5 6.5 6.5 6.5 6.5 6.5 6.5 6.5 5.7 4.8
1.4 5.9 4.9 3.1 6.1 5.0 6.5 6.5 6.9 6.4 6.4 6.5 6.5 6.5 6.5 6.5 6.5 6.5 6.5 6.5 6.2 6.5 6.5 6.5 6.5 6.5 6.5 6.5 6.5 6.5 6.5 6.5 6.5 6.5 6.5 6.5 6.5 6.5 6.5 6.5 6.5 6.6 6.4 5.6 4.7
2.5 2.5 3.4 3.6 6.5 6.5 6.3 6.5 6.6 6.5 6.5 6.5 6.5 6.5 6.5 6.5 6.5 6.5 6.5 6.1 6.1 6.5 6.5 6.5 6.5 6.5 6.5 6.5 6.5 6.5 6.5 6.5 6.5 6.5 6.5 6.5 6.5 6.5 6.5 6.5 6.5 6.5 6.3 5.9 5.2
1.6 6.5 3.0 2.3 4.2 6.4 6.5 6.5 6.5 6.5 6.6 6.7 6.5 6.5 6.5 6.5 6.5 6.5 6.5 6.5 6.4 6.3 7.2 6.1 6.5 6.5 6.5 6.5 6.5 6.5 6.5 6.5 6.5 6.5 6.5 6.5 6.5 6.5 6.5 6.5 6.5 6.5 6.3 6.1 5.7
1.0 5.0 4.9 6.5 6.0 6.1 6.3 6.5 6.5 6.5 6.3 6.0 6.5 6.5 6.5 6.5 6.5 6.5 6.5 6.5 6.4 6.8 6.1 6.5 6.5 6.5 6.5 6.5 6.5 6.5 6.5 6.5 6.5 6.5 6.5 6.5 6.5 6.5 6.5 6.5 6.6 6.3 6.4 6.4 6.0
2.1 2.5 1.7 1.0 4.5 6.2 6.5 6.5 6.5 6.5 6.5 6.5 6.5 6.5 6.5 6.5 6.5 6.5 6.5 6.5 6.5 6.7 6.5 6.5 6.5 6.5 6.5 6.5 6.5 6.5 6.5 6.5 6.5 6.5 6.5 6.5 6.5 6.5 6.6 6.5 6.5 6.5 6.7 6.7 6.7
2.7 3.4 2.9 4.8 5.5 6.6 6.5 6.5 6.5 6.4 6.3 5.7 5.9 6.5 6.5 6.3 4.0 5.5 5.7 6.2 6.2 6.5 6.5 6.5 6.5 6.5 6.5 6.5 6.5 6.5 6.5 6.5 6.5 6.5 6.5 6.5 6.5 6.5 6.5 6.5 6.6 6.5 6.7 6.7 6.4
Wind_Speed
26 26 25 25 25 25 26 25 25 24 23 21 21 20 19 19 18 14 19 13 12 33 24 5 13 14 10 7 6 3 11 19 18 14 11 11 6 5 4 5 0 1 6 7 11
27 27 26 26 26 27 27 27 27 26 24 24 20 21 20 14 11 16 21 21 23 24 10 19 11 15 11 14 10 14 19 24 7 11 15 5 12 8 6 7 1 2 4 11 15
29 30 30 29 29 29 30 29 28 27 25 23 21 19 13 8 7 6 19 13 21 29 16 14 16 14 19 14 14 15 29 18 18 12 6 11 5 5 7 5 7 10 8 15 17
30 30 30 30 30 31 31 31 29 26 26 24 19 12 6 2 4 6 33 28 29 12 16 18 16 16 18 31 20 18 24 19 15 11 7 6 3 4 7 8 12 14 23 17 17
31 32 32 32 33 34 35 33 31 30 28 21 16 10 3 3 7 22 26 23 13 10 11 26 23 20 21 21 25 29 9 23 16 17 15 8 9 5 3 9 2 10 16 20 20
33 33 33 32 33 36 36 35 34 34 29 24 19 5 1 2 7 12 14 11 13 10 10 14 12 18 11 19 28 8 21 16 25 22 7 17 12 6 5 2 9 14 15 17 21
32 33 32 32 31 32 31 34 33 31 25 19 10 5 4 5 5 6 3 4 8 7 8 7 16 11 17 9 21 22 22 23 26 26 15 4 11 16 7 3 12 15 16 15 16
34 33 32 32 31 30 27 32 30 26 18 7 10 6 1 5 10 7 6 4 7 7 3 14 10 13 16 9 20 25 21 17 27 24 17 12 32 10 11 8 10 13 12 14 13
34 33 32 32 30 28 24 29 26 21 15 3 7 3 2 6 6 6 5 11 13 10 2 12 5 9 7 21 14 15 17 33 22 28 10 22 17 16 13 12 9 10 14 15 14
33 33 33 33 30 20 21 18 19 11 16 2 5 3 8 17 8 3 6 15 4 11 2 2 5 9 11 11 19 13 20 19 26 12 28 19 16 10 12 14 12 10 11 14 17
33 31 32 32 30 16 9 4 6 6 8 4 10 3 14 19 4 7 7 10 4 3 6 5 5 13 26 20 5 16 9 11 9 16 17 29 16 9 14 13 12 11 11 13 18
31 30 31 33 27 14 3 5 2 4 4 5 17 4 18 11 6 15 9 6 5 4 6 4 8 10 8 12 10 10 18 15 7 16 19 19 26 15 9 10 13 12 13 13 12
29 29 31 30 19 6 1 3 3 6 2 7 11 5 19 10 6 16 14 12 2 4 5 8 7 6 7 8 13 15 15 12 18 15 14 17 18 20 19 6 8 10 16 14 19
28 30 29 29 6 5 3 7 7 3 4 17 17 7 15 16 12 7 15 3 4 6 6 9 10 14 10 6 3 11 13 9 12 10 14 17 11 20 21 22 14 8 12 14 15
27 29 28 17 5 9 11 9 6 3 5 19 9 8 16 13 7 14 14 6 4 13 3 7 9 12 3 6 6 5 5 17 9 19 4 17 6 4 22 20 14 7 7 14 18
26 27 24 13 1 11 12 7 4 5 5 9 11 14 20 10 10 10 11 14 1 6 8 5 8 6 8 3 5 4 3 10 7 6 10 10 11 3 14 20 6 4 4 13 15
24 25 18 7 9 24 3 3 5 7 13 16 18 16 12 15 13 14 11 20 16 10 16 9 5 13 20 6 3 2 1 6 9 10 4 11 14 2 5 5 2 13 9 10 13
15 22 18 16 25 17 5 5 12 11 9 12 11 13 10 19 11 14 12 15 11 14 9 7 8 17 15 4 6 4 2 2 3 4 3 7 3 3 2 3 10 9 9 10 11
8 6 10 13 21 8 5 11 4 6 9 10 12 6 10 16 9 10 13 12 7 17 8 6 4 8 15 7 10 5 2 5 1 1 5 4 2 3 5 7 10 9 9 9 10
2 3 13 21 19 5 6 11 3 6 7 4 9 6 5 13 14 12 15 6 20 18 14 5 4 9 9 8 14 3 4 3 2 2 4 3 4 3 3 7 8 7 8 8 8
4 4 4 24 5 6 7 3 4 7 9 6 6 4 4 4 5 7 8 7 18 18 10 3 2 6 5 14 10 11 5 3 1 2 2 3 2 1 4 3 9 7 6 6 6
3 4 5 5 9 3 6 5 7 8 9 5 4 4 3 5 5 7 7 4 13 14 11 3 1 3 2 4 10 11 8 3 2 2 4 3 2 5 4 6 8 8 6 5 7
2 1 3 5 5 5 5 8 4 9 8 7 7 5 4 4 5 3 6 11 12 16 10 7 4 4 8 5 12 11 22 10 3 2 4 2 2 4 7 7 6 9 7 6 6
3 4 4 4 2 2 3 5 11 6 2 5 4 5 5 4 1 5 7 5 13 12 23 6 5 3 3 5 9 17 24 21 7 4 4 6 7 5 5 6 6 6 8 7 6
4 1 2 4 4 4 3 5 10 9 4 7 5 9 1 4 6 5 4 7 7 13 9 5 5 6 4 5 16 19 21 25 24 18 6 4 8 6 5 5 4 6 8 8 8
3 3 3 2 3 4 7 3 8 7 3 6 1 13 2 3 5 7 5 0 5 10 8 7 3 4 3 6 5 18 20 20 21 17 8 8 7 6 7 6 7 7 8 8 7
2 2 4 4 3 3 2 5 5 5 4 3 5 3 5 4 6 9 8 8 6 5 5 4 3 4 4 9 4 5 17 13 9 16 9 7 5 4 6 6 5 7 7 8 8
Wind_Direction
359 357 353 351 347 344 341 338 334 330 328 323 317 311 304 298 293 282 263 247 239 242 253 280 210 232 219 208 204 159 227 226 206 184 215 218 172 188 203 244 48 274 160 178 150
358 355 351 348 346 343 340 337 334 329 325 321 320 315 308 305 295 281 254 250 249 242 220 235 231 205 223 207 202 204 224 225 200 208 215 174 193 199 197 181 27 331 8 138 136
357 354 351 347 345 342 338 336 333 331 326 323 317 316 320 301 294 237 44 355 245 239 236 215 234 208 217 227 202 217 228 218 208 204 210 218 224 204 185 214 191 188 166 154 146
355 352 350 346 343 341 338 335 335 334 329 324 323 309 327 261 245 29 343 341 326 286 221 220 207 219 212 220 216 230 229 231 218 222 203 196 238 179 189 220 192 186 164 154 155
354 352 350 348 344 341 340 336 337 337 332 330 331 310 60 246 303 334 347 340 345 333 283 201 203 216 217 217 230 233 215 217 237 221 223 231 223 204 219 265 181 141 157 162 162
354 352 349 348 344 339 338 334 336 335 332 331 309 310 63 277 282 316 338 335 331 332 311 227 215 207 238 231 213 213 237 228 215 237 220 219 233 168 213 252 142 165 166 167 164
353 350 348 347 346 340 336 328 331 330 325 329 319 177 78 303 245 264 313 288 305 310 308 298 240 214 208 249 228 231 249 218 236 227 224 119 246 222 214 122 167 188 171 170 175
351 348 346 345 348 344 339 323 329 321 329 341 57 84 145 270 257 279 291 300 273 303 315 290 270 263 230 218 254 225 236 245 224 216 225 202 242 189 201 176 175 188 171 164 171
349 345 344 344 347 346 343 327 337 337 358 243 52 43 345 298 322 262 267 311 309 279 282 300 270 221 275 227 223 218 215 229 237 213 201 197 232 210 195 189 186 181 174 170 161
349 345 347 342 347 353 350 333 341 359 357 26 27 37 335 336 318 273 288 313 309 294 223 283 239 228 220 220 216 199 221 225 224 210 205 212 216 174 188 186 192 175 175 167 165
349 345 346 342 342 355 351 18 15 346 33 91 308 253 335 329 298 326 322 313 322 284 236 199 242 214 228 231 277 241 218 231 221 192 204 214 206 210 189 168 185 180 172 171 174
348 348 345 340 336 353 23 73 203 228 331 340 7 318 348 341 313 346 6 335 326 309 320 246 247 250 297 256 264 271 230 220 198 231 191 206 222 196 194 190 184 178 180 169 160
350 347 346 340 334 14 338 70 231 127 111 347 357 331 340 336 350 5 357 326 312 294 317 272 258 338 209 228 245 248 249 218 216 190 245 220 222 203 211 177 158 189 179 171 167
355 348 351 343 37 325 316 331 172 133 64 357 1 340 341 331 5 355 346 317 316 310 307 270 311 303 234 210 202 281 196 249 187 194 213 198 217 212 195 208 209 174 183 168 170
357 355 354 9 278 359 313 318 142 50 48 333 341 305 337 24 324 350 341 344 287 337 343 319 305 319 163 179 140 277 233 199 255 211 162 197 208 271 192 202 188 155 194 171 166
358 354 357 359 24 341 346 95 47 51 334 326 343 335 354 349 345 338 7 5 236 308 324 296 293 359 320 295 177 239 234 186 192 215 213 178 191 204 186 195 150 125 123 153 146
360 1 12 3 336 329 358 41 49 47 339 339 336 335 351 352 345 10 355 11 26 344 345 329 346 351 9 336 201 245 341 160 207 204 176 147 193 119 16 346 175 151 134 137 124
1 15 6 15 343 354 24 60 56 351 353 322 333 342 11 356 340 344 358 10 8 1 318 356 355 349 351 16 317 309 310 328 179 181 137 160 187 80 344 9 77 78 114 109 112
352 1 16 348 353 11 58 52 43 347 322 330 329 356 353 351 334 353 359 12 348 354 352 344 309 338 1 344 348 332 54 355 180 220 107 101 57 97 53 63 78 75 83 84 92
49 26 12 347 7 44 53 81 56 356 326 346 10 9 330 336 355 7 351 339 348 351 345 334 310 349 333 339 15 41 329 36 42 34 123 79 80 68 17 114 94 86 75 70 79
44 43 300 344 45 36 51 38 11 351 6 10 344 323 313 314 324 338 326 303 352 335 342 287 60 307 352 28 3 6 13 346 333 49 338 111 4 98 273 108 109 95 81 83 79
60 51 314 2 34 27 34 10 353 330 356 12 4 316 328 307 320 345 342 266 328 326 337 274 56 319 264 272 359 37 1 304 91 337 56 71 313 300 121 109 108 107 96 81 92
75 268 333 48 44 15 340 1 335 351 6 5 2 352 348 305 3 39 326 298 337 352 1 319 345 346 349 347 15 13 10 6 222 108 33 123 224 49 71 64 76 107 98 100 111
74 22 338 37 55 39 355 357 356 342 53 358 6 1 330 339 61 301 322 304 332 345 4 32 16 77 94 52 17 14 15 19 51 56 63 44 105 47 69 83 71 82 97 99 95
34 69 194 333 4 27 15 354 358 1 349 14 351 6 313 335 330 340 323 313 315 354 356 60 37 15 359 55 53 29 21 21 34 17 64 71 86 89 86 101 94 99 98 104 96
90 73 359 290 316 20 2 331 351 341 321 331 15 328 113 175 194 305 333 12 264 330 350 356 359 354 355 330 59 41 17 23 28 15 26 68 59 53 72 77 82 95 106 109 120
340 39 105 318 3 47 291 292 313 351 289 242 276 356 331 237 216 250 226 256 260 313 315 35 10 24 304 341 6 24 4 19 32 25 352 21 36 54 72 70 71 85 88 97 97